GPS BIIF-3

Last updated on Sun Apr 12 2026 00:02:39 GMT+0000 (Coordinated Universal Time)

1 38833U 12053A 26101.00970464 .00000042 00000+0 00000+0 0 9990 2 38833 53.5715 146.3518 0177553 65.0309 296.8774 2.00566453 98092
UTC large
Height (km)
Speed (km/s)
/
Latitude / Longitude
Inclination (degrees)
Orbital Period (minutes)
Azimuth
Elevation
Range (km)
Doppler Factor

Next 0 passes for location: London (51.5072 / 0.1276)

Sorry there are no passes over London.